Location: Gop?varam
(16.9581°N, 80.5368°E)
Time: 13:51:43
(UTC+00:00)

Daily predictions for brighter satellites

Satellite Brightness Start Highest point End
(mag) Time Altitude Azimuth Time Altitude Azimuth Time Altitude Azimuth
SL-8 R/B 4.2 13:17:33 10° NNW 13:22:04 45° NE 13:26:33 10° ESE
COBE Rocket 4.0 13:17:12 10° NNE 13:22:14 86° E 13:27:08 10° S
SWIFT 1.8 13:20:28 10° W 13:23:33 67° N 13:26:40 10° ENE
CZ-2D R/B 4.4 13:25:16 10° SSW 13:27:59 34° W 13:30:40 10° NNW
Cosmos 405 Rocket 4.0 13:25:24 10° NNW 13:28:06 32° W 13:30:49 10° SSW
Cosmos 1110 Rocket 4.0 13:24:22 10° S 13:29:33 64° ESE 13:34:46 10° NNE
Cosmos 1833 Rocket 4.4 13:25:59 10° SW 13:31:07 38° WNW 13:36:16 10° N
ARIANE 6 FM1 Upper Stage 3.4 13:27:39 10° N 13:31:14 33° ENE 13:34:51 10° SE
Cosmos 1607 3.9 13:26:06 10° SSW 13:32:05 63° ESE 13:38:09 10° NNE
SAR-Lupe-4 3.5 13:39:29 10° SSE 13:42:55 58° ENE 13:46:22 10° N
ATLAS 5 CENTAUR R/B 1.1 13:37:32 10° W 13:42:59 54° N 13:45:18 11° ENE
Cosmos 1818 3.7 13:38:23 10° NNW 13:43:48 78° WSW 13:49:12 10° SSE
Cosmos 2100 Rocket 4.3 13:45:26 10° SSE 13:51:12 43° E 13:57:01 10° NNE
GPS 2-15 Rocket1 4.4 13:47:53 10° SSW 13:51:42 23° SSE 13:53:46 18° SE
Meteor 2-1 Rocket 4.3 13:46:07 10° S 13:51:44 54° E 13:57:12 10° NNE
SL-24 R/B 4.3 13:47:56 10° NNE 13:52:05 50° E 13:56:23 10° S
SPOT 5 4.0 13:50:45 17° ESE 13:52:25 20° ENE 13:55:37 10° NNE
Resurs 01 Rocket 1.7 13:49:12 10° S 13:53:33 81° W 13:57:54 10° NNW
Cosmos 1656 3.7 13:48:48 10° N 13:54:21 70° ENE 13:59:59 10° SSE
TOS 3.2 13:54:49 10° W 13:57:18 68° S 14:01:03 17° E
PSLV R/B 3.3 13:53:47 10° SSE 13:57:54 78° ENE 14:02:01 10° N
Cosmos 2151 Rocket 3.6 13:57:11 10° S 14:01:33 83° W 14:05:53 10° N
Okean 2 Rocket 3.0 13:58:04 10° S 14:02:29 68° E 14:06:54 10° N
FALCON 9 R/B 3.9 13:56:56 10° WSW 14:04:21 79° SSE 14:37:27 10° ENE
NOAA 6 4.4 14:02:52 10° S 14:07:53 64° WSW 14:12:55 10° NNW
Helios 1A Rocket 3.5 14:06:14 10° NE 14:08:05 25° ENE 14:08:05 25° ENE
Cosmos 1536 Rocket 4.4 14:05:44 10° NNE 14:09:33 29° E 14:10:13 28° E
ASTEX 1 3.9 14:07:56 24° SE 14:10:16 38° E 14:14:50 10° NNE
SL-24 R/B 4.5 14:07:25 10° NNE 14:12:05 63° ESE 14:17:36 10° S
ATLAS 2A CENTAUR R/B 2.7 14:10:14 10° NW 14:12:52 21° N 14:13:36 18° NNE
NOSS 3-3 (A) 3.5 14:08:23 10° SSW 14:13:08 76° WNW 14:18:12 10° NNE
Meteor 2-3 Rocket 4.5 14:11:41 10° NNE 14:16:40 32° E 14:17:57 29° ESE
Cosmos 2082 Rocket 2.1 14:11:56 10° SSW 14:17:37 80° ESE 14:23:20 10° NNE
Cosmos 1725 Rocket 4.2 14:16:15 16° SSE 14:21:05 46° E 14:27:00 10° NNE
Cosmos 1190 Rocket 4.1 14:16:19 10° NNW 14:21:30 76° WSW 14:25:27 17° S
Cosmos 1455 Rocket 3.4 14:21:34 40° ESE 14:22:17 43° E 14:26:27 10° NNE
GPS 2-12 Rocket1 3.3 14:18:29 10° W 14:22:42 51° SSW 14:23:48 40° SSE
Milstar 3 3.9 14:18:17 10° WNW 14:24:22 36° N 14:30:39 14° ENE
SL-4 R/B 4.1 14:24:33 10° NNE 14:26:12 13° NE 14:26:12 13° NE
Delta 168 3.3 14:23:31 10° W 14:26:31 42° NNW 14:27:51 28° NE
Cosmos 332 Rocket 3.6 14:25:25 10° N 14:30:07 69° ENE 14:31:24 46° SE
Okean 1 Rocket 3.9 14:29:07 10° SSW 14:33:19 50° W 14:37:33 10° N
Meteor 1-27 4.1 14:29:58 19° S 14:34:06 65° E 14:39:40 10° NNE
Cosmos 2016 Rocket 4.0 14:32:56 25° SSE 14:36:35 59° E 14:42:42 10° NNE
Cosmos 2173 Rocket 4.2 14:31:01 10° SSW 14:37:03 69° W 14:43:11 10° N
SJ 16-02 3.7 14:34:39 10° NW 14:37:43 20° W 14:40:48 10° SW
Cosmos 968 Rocket 3.8 14:33:49 10° N 14:38:48 45° ENE 14:38:56 45° E
SJ-6B 4.4 14:37:52 16° SSW 14:40:03 28° W 14:43:06 10° NW
Cosmos 1954 Rocket 4.5 14:35:35 10° NNW 14:40:36 57° WSW 14:43:29 25° S
SEDSat Delta rocket 4.1 14:34:29 10° SW 14:40:47 51° SSE 14:41:54 46° ESE
NOSS 3-3 (C) 4.4 14:39:35 10° SW 14:44:11 45° WNW 14:49:06 10° N
Cosmos 1697 Rocket 2.6 14:42:22 10° N 14:47:53 61° ENE 14:48:22 59° E
USA 215 3.2 14:49:08 48° ESE 14:51:03 74° NE 14:57:33 10° NNW
H-10 deb 4.1 14:48:42 10° WSW 14:50:45 15° SW 14:50:45 15° SW
COSMOS 2406 3.0 14:53:33 52° S 14:54:56 75° ESE 15:00:39 10° NNE
Palapa 6 Rocket 4.5 14:51:55 10° W 14:59:20 69° NNW 15:02:48 35° ENE
SWIFT 4.3 14:58:28 10° WNW 14:59:39 20° WNW 14:59:39 20° WNW
Cosmos 1816 Rocket 4.4 14:55:22 10° N 15:01:27 65° E 15:01:28 65° E
Cosmos 2061 Rocket 4.1 15:06:45 59° ENE 15:06:45 59° ENE 15:12:08 10° NNE
USA 229 DEB 4.0 14:59:10 10° NNW 15:07:22 79° ENE 15:09:21 57° SE
USA 229 4.1 14:59:13 10° NNW 15:07:26 78° ENE 15:09:22 57° SE
Terra 3.0 15:10:10 34° N 15:10:10 34° N 15:12:54 10° N
CSL-04 Rocket 4.3 15:07:39 38° SSW 15:09:19 51° W 15:14:38 10° NNW
SL-08 R/B 3.9 15:10:42 10° N 15:15:12 52° WNW 15:15:12 52° WNW
Cosmos 1980 Rocket 3.3 15:12:54 10° N 15:16:19 32° NNE 15:16:19 32° NNE
CZ-4 R/B 3.8 15:24:31 19° NW 15:24:31 19° NW 15:25:49 10° NW
CZ-4B R/B 3.8 15:27:55 53° N 15:27:55 53° N 15:32:09 10° NNW
Aureole 3 Rocket 4.3 15:37:44 73° NW 15:37:44 73° NW 15:45:21 10° N
ATLAS 3B R/B 3.0 15:38:30 10° NNW 15:44:53 66° NW 15:44:53 66° NW
Resurs 1-4 Rocket 4.4 20:54:26 10° NNE 20:55:53 19° NNE 20:55:53 19° NNE
Atlas Centaur 2 4.1 21:01:04 30° N 21:01:29 30° N 21:08:22 10° NE
CZ-2D R/B 3.7 21:31:54 10° N 21:34:26 28° N 21:34:26 28° N
Ariane H10+ 4.4 21:42:27 49° SW 21:45:48 56° S 22:00:34 10° ESE
H-2A R/B 3.3 21:40:34 10° N 21:43:36 33° NNW 21:43:36 33° NNW
USA 267 4.2 21:41:19 10° ENE 21:47:18 38° SE 21:48:52 34° SSE
CZ-3 R/B 3.9 21:07:50 10° WNW 21:53:02 83° NNE 22:03:17 10° ESE
Nadezhda 1 Rocket 3.9 21:55:46 74° NW 21:55:46 74° NW 22:01:27 10° N
ARGOS 3.2 21:51:45 10° NNE 21:57:03 71° ESE 21:57:14 70° ESE
Cosmos 1933 Rocket 4.4 21:55:17 10° N 21:58:53 47° NE 21:58:53 47° NE
USA 281 3.1 22:02:11 10° SSE 22:08:45 86° ENE 22:15:20 10° NNW
AQUA 3.7 22:07:19 10° NNE 22:11:49 83° N 22:11:49 83° N
Meteor 1-12 Rocket 4.0 22:06:47 10° N 22:12:24 73° W 22:12:48 69° SW
GOES 2 Rocket 3.8 22:14:27 53° S 22:14:52 54° SSE 22:19:34 10° ENE
Cosmos 1680 Rocket 3.9 22:15:45 36° SSE 22:17:43 59° ESE 22:22:49 10° NNE
Cosmos 2344 4.4 22:16:59 34° W 22:18:33 37° WNW 22:25:28 10° N
GPS 2-17 Rocket1 3.2 22:18:13 61° NNW 22:18:35 64° N 22:23:08 10° E
SL-08 RB Rocket 3.9 22:14:12 10° NNE 22:18:43 66° E 22:19:51 47° SSE
Cosmos 1943 3.1 22:13:36 10° NNW 22:18:48 59° W 22:18:48 59° W
Centaur D AC-29 2.1 22:18:26 38° WSW 22:21:53 79° NNW 22:25:41 10° ENE
H-2A R/B 1.8 22:19:20 10° NNE 22:23:19 81° E 22:23:31 77° SE
GPS 2-15 Rocket1 3.9 22:31:22 33° S 22:31:22 33° S 22:34:41 10° SE
Cosmos 1869 Rocket 3.3 22:26:15 10° N 22:30:33 87° W 22:31:55 43° S
ADEOS II 3.8 22:26:59 10° NNW 22:29:19 18° NW 22:29:19 18° NW
NOSS 3-2 (C) 3.1 22:30:37 46° WNW 22:30:50 47° WNW 22:35:36 10° N
Cosmos 2228 Rocket 3.9 22:28:10 17° SSE 22:31:22 51° E 22:35:40 10° NNE
Cosmos 1707 Rocket 3.3 22:34:33 45° S 22:35:49 84° W 22:40:06 10° N
NOSS 2-3 (D) 3.8 22:37:15 43° WNW 22:37:15 43° WNW 22:40:50 10° N
Cosmos 1862 Rocket 3.5 22:39:48 45° SW 22:40:56 63° W 22:45:18 10° N
EPKM 4.1 22:39:44 37° SW 22:40:58 44° S 22:54:43 10° ESE
NOSS 2-3 (E) 4.1 22:41:11 35° WNW 22:41:11 35° WNW 22:44:35 10° N
SL-24 R/B 3.9 22:37:12 10° N 22:41:10 70° WNW 22:42:44 38° SSW
Cosmos 494 Rocket 3.9 22:39:16 25° S 22:42:14 86° ESE 22:47:22 10° NNE
Cosmos 1603 3.7 22:38:51 10° NNW 22:44:35 88° ENE 22:50:16 10° SSE
Cosmos 1900 4.3 22:41:19 10° NNW 22:46:10 84° ENE 22:51:02 10° SSE
Cosmos 923 Rocket 4.5 22:44:58 35° WSW 22:46:21 42° WNW 22:51:21 10° N
Cosmos 1943 Rocket 2.4 22:43:29 15° S 22:48:05 73° ESE 22:53:43 10° NNE
ATLAS 2AS CENTAUR R/B 2.6 22:43:48 10° NNW 22:50:36 79° WSW 22:57:32 10° SSE
Cosmos 2112 Rocket 3.9 22:47:38 23° SSW 22:50:53 74° WNW 22:56:06 10° N
Atlas Centaur 2 4.4 22:44:52 10° NW 22:51:46 32° N 22:58:55 10° ENE
ARIANE 5 R/B 3.2 22:59:07 15° S 22:59:09 15° S 23:01:12 10° SSE
IUS-1 SRM-2 4.1 23:00:17 16° WNW 23:02:57 43° N 23:14:30 10° ENE
SJ-11-01 4.2 23:01:10 10° N 23:05:47 87° W 23:10:23 10° SSW
OAO 3 Rocket 3.9 23:03:20 18° SSW 23:06:35 45° SE 23:11:11 10° ENE
Meteor 2-5 Rocket 3.6 23:01:26 10° SSW 23:06:55 69° W 23:12:24 10° N
Okean 1-7 4.0 23:07:10 23° WSW 23:08:01 24° W 23:11:23 10° NNW
Intelsat 5-1 Rocket 3.8 23:05:06 11° WNW 23:08:52 43° N 23:18:22 10° ENE
Timation 2 Rocket 4.5 23:03:23 10° S 23:09:11 57° ESE 23:15:03 10° NNE
Cosmos 2278 Rocket 2.2 23:06:36 10° SSW 23:12:15 86° WNW 23:17:55 10° NNE
Cosmos 2366 rocket 4.1 23:06:28 10° N 23:12:48 88° E 23:19:10 10° S
CZ-2C R/B 2.7 23:08:35 10° N 23:12:49 40° WNW 23:16:31 13° SW
Cosmos 1733 Rocket 3.0 23:14:56 10° NNW 23:19:10 60° W 23:23:22 10° S
Cosmos 1400 Rocket 4.0 23:21:20 10° NW 23:24:07 20° W 23:26:41 11° SW
Cosmos 2181 Rocket 4.4 23:22:48 10° SSW 23:28:29 41° W 23:34:12 10° NNW
USA 267 4.0 23:24:12 10° NNE 23:30:05 37° NW 23:35:57 10° WSW
Meteor 1-24 Rocket 4.5 23:27:45 10° SW 23:32:19 29° W 23:37:00 10° NNW
SEDSat Delta rocket 3.0 23:29:00 10° WNW 23:33:56 77° SSW 23:38:16 10° SE
SL-16 R/B 2.8 23:28:21 10° S 23:34:16 45° WSW 23:40:12 10° NNW
USA 59 Rocket 0.7 23:29:08 10° SSW 23:34:53 65° ESE 23:38:58 10° NE
USA 307 4.0 23:32:23 10° WNW 23:35:09 18° WSW 23:37:57 10° SSW
EPKM 4.1 23:33:19 10° SSW 23:35:54 27° SE 23:42:06 10° E
Exosat Rocket 4.4 23:33:16 10° SW 23:38:18 33° WNW 23:42:46 10° N
Cosmos 1821 Rocket 4.0 23:33:51 10° N 23:40:03 84° W 23:46:09 10° S
Meteosat 1 Rocket2 3.2 23:38:46 10° WNW 23:44:34 76° SSW 23:48:39 10° ESE
Stardust Del rocket 2.8 23:41:55 10° WNW 23:45:53 78° NNE 23:48:28 10° E
NOSS 2-1 (C) 4.4 23:41:14 10° SSW 23:47:11 61° ESE 23:51:23 10° NE
